When you browse on this site, cookies collect data to enhance your experience and personalize the content and advertising you see.
Visit our Privacy Policy to learn more. By continuing to use the site, you agree to this use of cookies and data.
  • In Österreich
  • Länderverzeichnis
  • Für 7 Tage
  • Wassertemperatur
  • Satellitenkarten
  • Wetterkarte
  • News
  • Widgets
  • user-avatar
    Anmelden

    Stündliche Wetter Asfi

    Heute, 13 Dezember, Donnerstag

    Zeit Temperatur Niederschläge Wind Luftdruck Luftfeuchtigkeit
    00:00 +14°C° 0 mm 2 m/S 744 mmHg 40%
    01:00 +14°C° 0 mm 2 m/S 744 mmHg 40%
    02:00 +13°C° 0 mm 2 m/S 744 mmHg 41%
    03:00 +13°C° 0 mm 2 m/S 744 mmHg 41%
    04:00 +13°C° 0 mm 2 m/S 744 mmHg 42%
    05:00 +13°C° 0 mm 2 m/S 744 mmHg 42%
    06:00 +12°C° 0 mm 3 m/S 743 mmHg 42%
    07:00 +11°C° 0 mm 3 m/S 743 mmHg 43%
    08:00 +12°C° 0 mm 3 m/S 744 mmHg 40%
    09:00 +13°C° 0 mm 3 m/S 744 mmHg 38%
    10:00 +14°C° 0 mm 3 m/S 744 mmHg 36%
    11:00 +15°C° 0 mm 4 m/S 744 mmHg 33%
    12:00 +18°C° 0 mm 4 m/S 743 mmHg 30%
    13:00 +19°C° 0 mm 5 m/S 743 mmHg 27%
    14:00 +19°C° 0 mm 5 m/S 742 mmHg 27%
    15:00 +19°C° 0 mm 5 m/S 742 mmHg 27%
    16:00 +19°C° 0 mm 5 m/S 742 mmHg 26%
    17:00 +18°C° 0 mm 4 m/S 741 mmHg 29%
    18:00 +17°C° 0 mm 4 m/S 741 mmHg 31%
    19:00 +15°C° 0 mm 4 m/S 741 mmHg 34%
    20:00 +15°C° 0 mm 4 m/S 741 mmHg 35%
    21:00 +14°C° 0 mm 4 m/S 741 mmHg 36%
    22:00 +14°C° 0 mm 4 m/S 741 mmHg 37%
    23:00 +14°C° 0 mm 5 m/S 741 mmHg 38%

    Morgen, 14 Dezember, Freitag

    Zeit Temperatur Niederschläge Wind Luftdruck Luftfeuchtigkeit
    00:00 +14°C° 0 mm 5 m/S 740 mmHg 38%
    01:00 +13°C° 0 mm 5 m/S 740 mmHg 38%
    02:00 +13°C° 0 mm 5 m/S 740 mmHg 38%
    03:00 +13°C° 0 mm 6 m/S 739 mmHg 38%
    04:00 +13°C° 0 mm 6 m/S 739 mmHg 38%
    05:00 +13°C° 0 mm 6 m/S 739 mmHg 38%
    06:00 +12°C° 0 mm 5 m/S 739 mmHg 38%
    07:00 +12°C° 0 mm 5 m/S 739 mmHg 38%
    08:00 +13°C° 0 mm 6 m/S 739 mmHg 38%
    09:00 +13°C° 0 mm 6 m/S 739 mmHg 38%
    10:00 +14°C° 0 mm 6 m/S 740 mmHg 37%
    11:00 +14°C° 0 mm 7 m/S 740 mmHg 38%
    12:00 +13°C° 0 mm 8 m/S 740 mmHg 38%
    13:00 +15°C° 0 mm 8 m/S 739 mmHg 38%
    14:00 +15°C° 0 mm 8 m/S 739 mmHg 36%
    15:00 +15°C° 0 mm 9 m/S 739 mmHg 33%
    16:00 +15°C° 0 mm 9 m/S 739 mmHg 31%
    17:00 +15°C° 0 mm 8 m/S 739 mmHg 33%
    18:00 +13°C° 0 mm 8 m/S 739 mmHg 35%
    19:00 +14°C° 0 mm 7 m/S 739 mmHg 37%
    20:00 +13°C° 0 mm 8 m/S 739 mmHg 36%
    21:00 +13°C° 0 mm 9 m/S 739 mmHg 36%
    22:00 +13°C° 0 mm 9 m/S 739 mmHg 36%
    23:00 +12°C° 0 mm 9 m/S 739 mmHg 40%

    übermorgen, 15 Dezember, Samstag

    Zeit Temperatur Niederschläge Wind Luftdruck Luftfeuchtigkeit
    00:00 +12°C° 0 mm 8 m/S 740 mmHg 44%
    01:00 +11°C° 0 mm 7 m/S 740 mmHg 48%
    02:00 +11°C° 0 mm 7 m/S 740 mmHg 52%
    03:00 +10°C° 0 mm 6 m/S 741 mmHg 56%
    04:00 +10°C° 0 mm 5 m/S 741 mmHg 60%
    05:00 +9°C° 0 mm 5 m/S 741 mmHg 61%
    06:00 +10°C° 0 mm 4 m/S 742 mmHg 63%
    07:00 +10°C° 0 mm 4 m/S 743 mmHg 64%
    08:00 +10°C° 0 mm 5 m/S 743 mmHg 60%
    09:00 +11°C° 0 mm 7 m/S 744 mmHg 56%
    10:00 +12°C° 0 mm 8 m/S 745 mmHg 53%
    11:00 +13°C° 0 mm 8 m/S 745 mmHg 48%
    12:00 +15°C° 0 mm 9 m/S 745 mmHg 44%
    13:00 +15°C° 0 mm 9 m/S 745 mmHg 40%
    14:00 +15°C° 0 mm 9 m/S 745 mmHg 39%
    15:00 +15°C° 0 mm 8 m/S 745 mmHg 37%
    16:00 +15°C° 0 mm 8 m/S 745 mmHg 36%
    17:00 +15°C° 0 mm 7 m/S 746 mmHg 36%
    18:00 +14°C° 0 mm 5 m/S 747 mmHg 37%
    19:00 +13°C° 0 mm 4 m/S 747 mmHg 37%
    20:00 +12°C° 0 mm 4 m/S 748 mmHg 39%
    21:00 +12°C° 0 mm 4 m/S 748 mmHg 42%
    22:00 +11°C° 0 mm 4 m/S 748 mmHg 44%
    23:00 +11°C° 0 mm 3 m/S 748 mmHg 46%

    16 Dezember, Sonntag

    Zeit Temperatur Niederschläge Wind Luftdruck Luftfeuchtigkeit
    00:00 +11°C° 0 mm 3 m/S 748 mmHg 49%
    01:00 +10°C° 0 mm 2 m/S 748 mmHg 51%
    02:00 +10°C° 0 mm 2 m/S 748 mmHg 52%
    03:00 +10°C° 0 mm 3 m/S 748 mmHg 53%
    04:00 +10°C° 0 mm 3 m/S 748 mmHg 54%
    05:00 +10°C° 0 mm 3 m/S 748 mmHg 55%
    06:00 +10°C° 0 mm 3 m/S 748 mmHg 56%
    07:00 +10°C° 0 mm 3 m/S 749 mmHg 57%
    08:00 +11°C° 0 mm 3 m/S 749 mmHg 53%
    09:00 +12°C° 0 mm 3 m/S 750 mmHg 50%
    10:00 +13°C° 0 mm 3 m/S 750 mmHg 47%
    11:00 +14°C° 0 mm 4 m/S 750 mmHg 45%
    12:00 +15°C° 0 mm 4 m/S 749 mmHg 42%
    13:00 +17°C° 0 mm 4 m/S 749 mmHg 40%
    14:00 +17°C° 0 mm 4 m/S 749 mmHg 40%
    15:00 +17°C° 0 mm 4 m/S 749 mmHg 41%
    16:00 +17°C° 0 mm 4 m/S 748 mmHg 41%
    17:00 +16°C° 0 mm 3 m/S 748 mmHg 44%
    18:00 +16°C° 0 mm 3 m/S 749 mmHg 46%
    19:00 +15°C° 0 mm 2 m/S 749 mmHg 49%
    20:00 +14°C° 0 mm 3 m/S 749 mmHg 49%
    21:00 +13°C° 0 mm 3 m/S 749 mmHg 50%
    22:00 +13°C° 0 mm 3 m/S 750 mmHg 51%
    23:00 +13°C° 0 mm 3 m/S 750 mmHg 52%

    17 Dezember, Montag

    Zeit Temperatur Niederschläge Wind Luftdruck Luftfeuchtigkeit
    00:00 +12°C° 0 mm 3 m/S 749 mmHg 52%
    01:00 +12°C° 0 mm 4 m/S 749 mmHg 53%
    02:00 +12°C° 0 mm 4 m/S 749 mmHg 54%
    03:00 +12°C° 0 mm 4 m/S 749 mmHg 54%
    04:00 +11°C° 0 mm 4 m/S 749 mmHg 55%
    05:00 +11°C° 0 mm 4 m/S 749 mmHg 56%
    06:00 +11°C° 0 mm 3 m/S 749 mmHg 56%
    07:00 +11°C° 0 mm 3 m/S 749 mmHg 57%
    08:00 +12°C° 0 mm 3 m/S 749 mmHg 54%
    09:00 +13°C° 0 mm 3 m/S 749 mmHg 50%
    10:00 +13°C° 0 mm 3 m/S 750 mmHg 47%
    11:00 +15°C° 0 mm 4 m/S 749 mmHg 43%
    12:00 +17°C° 0 mm 4 m/S 749 mmHg 39%
    13:00 +17°C° 0 mm 5 m/S 749 mmHg 36%
    14:00 +17°C° 0 mm 5 m/S 749 mmHg 35%
    15:00 +18°C° 0 mm 4 m/S 748 mmHg 35%
    16:00 +18°C° 0 mm 4 m/S 748 mmHg 34%
    17:00 +17°C° 0 mm 3 m/S 748 mmHg 37%
    18:00 +16°C° 0 mm 3 m/S 748 mmHg 40%
    19:00 +15°C° 0 mm 2 m/S 749 mmHg 42%
    20:00 +15°C° 0 mm 2 m/S 749 mmHg 43%
    21:00 +14°C° 0 mm 1 m/S 749 mmHg 45%
    22:00 +14°C° 0 mm 1 m/S 749 mmHg 46%
    23:00 +14°C° 0 mm 1 m/S 749 mmHg 46%

    18 Dezember, Dienstag

    Zeit Temperatur Niederschläge Wind Luftdruck Luftfeuchtigkeit
    00:00 +13°C° 0 mm 1 m/S 749 mmHg 47%
    01:00 +13°C° 0 mm 1 m/S 749 mmHg 47%
    02:00 +12°C° 0 mm 1 m/S 749 mmHg 49%
    03:00 +12°C° 0 mm 1 m/S 749 mmHg 50%
    04:00 +11°C° 0 mm 1 m/S 749 mmHg 52%
    05:00 +11°C° 0 mm 1 m/S 749 mmHg 52%
    06:00 +11°C° 0 mm 1 m/S 749 mmHg 51%
    07:00 +11°C° 0 mm 1 m/S 749 mmHg 51%
    08:00 +13°C° 0 mm 2 m/S 750 mmHg 49%
    09:00 +14°C° 0 mm 2 m/S 750 mmHg 47%
    10:00 +14°C° 0 mm 3 m/S 751 mmHg 46%
    11:00 +16°C° 0 mm 3 m/S 750 mmHg 45%
    12:00 +17°C° 0 mm 4 m/S 750 mmHg 45%
    13:00 +18°C° 0 mm 4 m/S 750 mmHg 44%
    14:00 +18°C° 0 mm 4 m/S 750 mmHg 44%
    15:00 +18°C° 0 mm 3 m/S 750 mmHg 44%
    16:00 +18°C° 0 mm 3 m/S 749 mmHg 44%
    17:00 +17°C° 0 mm 3 m/S 750 mmHg 49%
    18:00 +17°C° 0 mm 3 m/S 750 mmHg 53%
    19:00 +16°C° 0 mm 3 m/S 750 mmHg 57%
    20:00 +14°C° 0 mm 3 m/S 750 mmHg 62%
    21:00 +14°C° 0 mm 4 m/S 750 mmHg 66%
    22:00 +13°C° 0 mm 4 m/S 751 mmHg 70%
    23:00 +13°C° 0 mm 4 m/S 750 mmHg 72%
    Mehr zeigen